Weather History for Perry, FL

Change the Weather History Date:

Friday, September 13, 2013

  Actual Average (KCTY) Record (KCTY)
Temperature  
Mean Temperature 80 °F 79 °F  
Max Temperature 93 °F 89 °F 95 °F (2010)
Min Temperature 68 °F 69 °F 63 °F (1998)
Cooling Degree Days 14 14  
Month to date cooling degree days 192  
Year to date cooling degree days 2130  
Growing Degree Days 30 (Base 50)    
Moisture  
Dew Point 67 °F    
Average Humidity 72    
Maximum Humidity 100    
Minimum Humidity 36    
Precipitation  
Precipitation 0.00 in 0.18 in 0.76 in (2006)
Month to date precipitation 2.33  
Year to date precipitation 37.70  
Sea Level Pressure  
Sea Level Pressure 29.88 in    
Wind  
Wind Speed 1 mph (West)    
Max Wind Speed 13 mph    
Max Gust Speed -    
Visibility 9 miles    
Events Fog    
T = Trace of Precipitation, MM = Missing Value Source: NWS Daily Summary

Daily Weather History Graph

Daily Weather History Graph

Search for Another Location

Airport:

Trip Planner

Search our weather history database for the weather conditions in past years. The results will help you decide how hot, cold, wet, or windy it might be!

Date:

Astronomy

Sep. 13, 2013 Rise Set
Actual Time 7:17 AM EDT 7:41 PM EDT
Civil Twilight 6:53 AM EDT 8:05 PM EDT
Nautical Twilight 6:25 AM EDT 8:33 PM EDT
Astronomical Twilight 5:57 AM EDT 9:02 PM EDT
Moon 3:12 PM EDT (9/13) 1:04 AM EDT (9/13)
Length of Visible Light 13h 11m
Length of Day
12h 23m
First Quarter, 61% of the Moon is Illuminated
Sep 13
First Quarter
Sep 19
Full
Sep 26
Last Quarter
Oct 4
New
Oct 11
First Quarter

Hourly Weather History & Observations

Time (EDT) Temp. Heat Index Dew Point Humidity Pressure Visibility Wind Dir Wind Speed Gust Speed Precip Events Conditions
12:15 AM 73.4 °F - 69.8 °F 88% 29.94 in 10.0 mi Calm Calm - N/A   Clear
12:35 AM 73.4 °F - 69.8 °F 88% 29.93 in 10.0 mi Calm Calm - N/A   Clear
12:53 AM 73.9 °F - 70.0 °F 87% 29.91 in - Calm Calm - N/A   Unknown
12:55 AM 71.6 °F - 69.8 °F 94% 29.93 in 10.0 mi Calm Calm - N/A   Clear
1:15 AM 73.4 °F - 69.8 °F 88% 29.92 in 10.0 mi NNW 3.5 mph - N/A   Clear
1:35 AM 71.6 °F - 69.8 °F 94% 29.92 in 10.0 mi Calm Calm - N/A   Clear
1:53 AM 73.9 °F - 69.1 °F 85% 29.90 in - Calm Calm - N/A   Unknown
1:55 AM 71.6 °F - 68.0 °F 88% 29.92 in 10.0 mi Calm Calm - N/A   Clear
2:15 AM 71.6 °F - 68.0 °F 88% 29.91 in 10.0 mi Calm Calm - N/A   Clear
2:35 AM 71.6 °F - 69.8 °F 94% 29.91 in 10.0 mi Calm Calm - N/A   Clear
2:53 AM 73.9 °F - 69.1 °F 85% 29.89 in - Calm Calm - N/A   Unknown
2:55 AM 71.6 °F - 68.0 °F 88% 29.91 in 10.0 mi Calm Calm - N/A   Clear
3:15 AM 71.6 °F - 68.0 °F 88% 29.90 in 7.0 mi Calm Calm - N/A   Clear
3:35 AM 69.8 °F - 68.0 °F 94% 29.90 in 10.0 mi Calm Calm - N/A   Clear
3:53 AM 72.0 °F - 68.0 °F 87% 29.89 in - Calm Calm - N/A   Unknown
3:55 AM 69.8 °F - 68.0 °F 94% 29.90 in 10.0 mi Calm Calm - N/A   Clear
4:15 AM 69.8 °F - 68.0 °F 94% 29.90 in 10.0 mi Calm Calm - N/A   Clear
4:35 AM 69.8 °F - 68.0 °F 94% 29.89 in 7.0 mi Calm Calm - N/A   Clear
4:53 AM 70.0 °F - 66.9 °F 90% 29.87 in - Calm Calm - N/A   Unknown
4:55 AM 69.8 °F - 68.0 °F 94% 29.89 in 10.0 mi Calm Calm - N/A   Clear
5:15 AM 68.0 °F - 66.2 °F 94% 29.89 in 7.0 mi Calm Calm - N/A   Clear
5:35 AM 68.0 °F - 68.0 °F 100% 29.88 in 5.0 mi Calm Calm - N/A   Clear
5:53 AM 70.0 °F - 66.9 °F 90% 29.87 in - Calm Calm - N/A   Unknown
5:55 AM 68.0 °F - 68.0 °F 100% 29.89 in 4.0 mi Calm Calm - N/A   Clear
6:15 AM 68.0 °F - 68.0 °F 100% 29.90 in 2.0 mi Calm Calm - N/A   Clear
6:35 AM 68.0 °F - 66.2 °F 94% 29.90 in 0.5 mi Calm Calm - N/A Fog Fog
6:53 AM 70.0 °F - 66.9 °F 90% 29.88 in - Calm Calm - N/A   Unknown
6:55 AM 68.0 °F - 66.2 °F 94% 29.90 in 7.0 mi Calm Calm - N/A   Clear
7:15 AM 68.0 °F - 66.2 °F 94% 29.90 in 4.0 mi Calm Calm - N/A   Clear
7:35 AM 68.0 °F - 66.2 °F 94% 29.90 in 0.8 mi Calm Calm - N/A   Mist
7:53 AM 70.0 °F - 66.9 °F 90% 29.89 in - Calm Calm - N/A   Unknown
7:55 AM 68.0 °F - 66.2 °F 94% 29.90 in 2.5 mi Calm Calm - N/A   Clear
8:15 AM 69.8 °F - 68.0 °F 94% 29.91 in 10.0 mi Calm Calm - N/A   Clear
8:35 AM 71.6 °F - 69.8 °F 94% 29.92 in 10.0 mi North 3.5 mph - N/A   Clear
8:53 AM 77.0 °F - 70.0 °F 79% 29.90 in - NNW 5.8 mph - N/A   Unknown
8:55 AM 73.4 °F - 71.6 °F 94% 29.92 in 10.0 mi North 4.6 mph - N/A   Clear
9:15 AM 75.2 °F - 71.6 °F 89% 29.91 in 10.0 mi Calm Calm - N/A   Clear
9:35 AM 78.8 °F - 71.6 °F 78% 29.92 in 10.0 mi North 4.6 mph - N/A   Clear
9:53 AM 80.1 °F 83.6 °F 71.1 °F 74% 29.91 in - NNW 3.5 mph - N/A   Unknown
9:55 AM 78.8 °F - 69.8 °F 74% 29.92 in 10.0 mi NNW 3.5 mph - N/A   Clear
10:15 AM 80.6 °F 83.9 °F 69.8 °F 70% 29.93 in 10.0 mi Calm Calm - N/A   Clear
10:35 AM 80.6 °F 83.9 °F 69.8 °F 70% 29.93 in 10.0 mi NNW 3.5 mph - N/A   Clear
10:53 AM 84.9 °F 89.4 °F 70.0 °F 61% 29.91 in - Calm Calm - N/A   Unknown
10:55 AM 82.4 °F 86.3 °F 69.8 °F 66% 29.92 in 10.0 mi Calm Calm - N/A   Clear
11:15 AM 82.4 °F 85.4 °F 68.0 °F 62% 29.92 in 10.0 mi Calm Calm - N/A   Clear
11:35 AM 84.2 °F 87.3 °F 68.0 °F 58% 29.92 in 10.0 mi NNW 3.5 mph - N/A   Clear
11:53 AM 89.1 °F 92.9 °F 68.0 °F 50% 29.91 in - West 4.6 mph - N/A   Unknown
11:55 AM 86.0 °F 87.3 °F 64.4 °F 48% 29.92 in 10.0 mi West 4.6 mph - N/A   Clear
12:15 PM 86.0 °F 86.1 °F 60.8 °F 43% 29.92 in 10.0 mi North 3.5 mph - N/A   Clear
12:35 PM 87.8 °F 89.4 °F 64.4 °F 46% 29.92 in 10.0 mi West 3.5 mph - N/A   Clear
12:53 PM 90.0 °F 92.4 °F 66.0 °F 45% 29.89 in - WNW 4.6 mph - N/A   Unknown
12:55 PM 87.8 °F 88.5 °F 62.6 °F 43% 29.91 in 10.0 mi NW 3.5 mph - N/A   Clear
1:15 PM 87.8 °F 87.6 °F 60.8 °F 40% 29.90 in 10.0 mi South 3.5 mph - N/A   Clear
1:35 PM 89.6 °F 88.9 °F 59.0 °F 36% 29.89 in 10.0 mi WNW 3.5 mph - N/A   Clear
1:53 PM 91.0 °F 92.6 °F 64.0 °F 41% 29.87 in - Calm Calm - N/A   Unknown
1:55 PM 87.8 °F 87.6 °F 60.8 °F 40% 29.88 in 10.0 mi Calm Calm - N/A   Clear
2:15 PM 89.6 °F 90.1 °F 62.6 °F 40% 29.87 in 10.0 mi North 4.6 mph - N/A   Clear
2:35 PM 89.6 °F 90.1 °F 62.6 °F 40% 29.86 in 10.0 mi West 5.8 mph - N/A   Clear
2:53 PM 91.0 °F 92.6 °F 64.0 °F 41% 29.84 in - Calm Calm - N/A   Unknown
2:55 PM 89.6 °F 89.5 °F 60.8 °F 38% 29.85 in 10.0 mi Calm Calm - N/A   Scattered Clouds
3:15 PM 89.6 °F 89.5 °F 60.8 °F 38% 29.84 in 10.0 mi Calm Calm - N/A   Scattered Clouds
3:35 PM 89.6 °F 90.1 °F 62.6 °F 40% 29.84 in 10.0 mi West 5.8 mph - N/A   Scattered Clouds
3:53 PM 91.9 °F 94.1 °F 64.9 °F 41% 29.81 in - WSW 8.1 mph - N/A   Unknown
3:55 PM 89.6 °F 90.1 °F 62.6 °F 40% 29.83 in 10.0 mi West 5.8 mph - N/A   Scattered Clouds
4:15 PM 87.8 °F 89.4 °F 64.4 °F 46% 29.82 in 10.0 mi West 8.1 mph - N/A   Clear
4:35 PM 89.6 °F 91.1 °F 64.4 °F 43% 29.82 in 10.0 mi WSW 12.7 mph - N/A   Clear
4:53 PM 90.0 °F 93.6 °F 68.0 °F 48% 29.80 in - West 9.2 mph - N/A   Unknown
4:55 PM 87.8 °F 89.4 °F 64.4 °F 46% 29.82 in 10.0 mi West 8.1 mph - N/A   Clear
5:15 PM 87.8 °F 89.4 °F 64.4 °F 46% 29.82 in 10.0 mi WSW 8.1 mph - N/A   Clear
5:35 PM 87.8 °F 89.4 °F 64.4 °F 46% 29.82 in 10.0 mi WSW 9.2 mph - N/A   Clear
5:53 PM 89.1 °F 92.1 °F 66.9 °F 48% 29.80 in - WSW 9.2 mph - N/A   Unknown
5:55 PM 87.8 °F 89.4 °F 64.4 °F 46% 29.82 in 10.0 mi WSW 9.2 mph - N/A   Clear
6:15 PM 86.0 °F 88.2 °F 66.2 °F 51% 29.82 in 10.0 mi SW 9.2 mph - N/A   Clear
6:35 PM 86.0 °F 88.2 °F 66.2 °F 51% 29.82 in 10.0 mi WSW 6.9 mph - N/A   Clear
6:53 PM 86.0 °F 90.1 °F 69.1 °F 57% 29.81 in - SW 4.6 mph - N/A   Unknown
6:55 PM 84.2 °F 87.3 °F 68.0 °F 58% 29.83 in 10.0 mi SW 4.6 mph - N/A   Clear
7:15 PM 82.4 °F 85.4 °F 68.0 °F 62% 29.83 in 10.0 mi WSW 4.6 mph - N/A   Clear
7:35 PM 80.6 °F 83.2 °F 68.0 °F 65% 29.83 in 10.0 mi SSW 3.5 mph - N/A   Clear
7:53 PM 81.0 °F 84.1 °F 69.1 °F 67% 29.82 in - SW 3.5 mph - N/A   Unknown
7:55 PM 78.8 °F - 68.0 °F 69% 29.83 in 10.0 mi WSW 3.5 mph - N/A   Clear
8:15 PM 78.8 °F - 69.8 °F 74% 29.83 in 10.0 mi Calm Calm - N/A   Clear
8:35 PM 78.8 °F - 68.0 °F 69% 29.84 in 10.0 mi Calm Calm - N/A   Clear
8:53 PM 77.0 °F - 69.1 °F 76% 29.83 in - Calm Calm - N/A   Unknown
8:55 PM 77.0 °F - 68.0 °F 74% 29.84 in 10.0 mi Calm Calm - N/A   Clear
9:15 PM 77.0 °F - 69.8 °F 78% 29.85 in 10.0 mi Calm Calm - N/A   Clear
9:35 PM 75.2 °F - 69.8 °F 83% 29.86 in 10.0 mi Calm Calm - N/A   Clear
9:53 PM 78.1 °F - 69.1 °F 74% 29.85 in - Calm Calm - N/A   Unknown
9:55 PM 75.2 °F - 69.8 °F 83% 29.87 in 10.0 mi Calm Calm - N/A   Clear
10:15 PM 75.2 °F - 69.8 °F 83% 29.87 in 10.0 mi Calm Calm - N/A   Clear
10:35 PM 75.2 °F - 69.8 °F 83% 29.87 in 10.0 mi Calm Calm - N/A   Scattered Clouds
10:53 PM 78.1 °F - 70.0 °F 76% 29.86 in - Calm Calm - N/A   Unknown
10:55 PM 75.2 °F - 69.8 °F 83% 29.87 in 10.0 mi Calm Calm - N/A   Mostly Cloudy
11:15 PM 75.2 °F - 69.8 °F 83% 29.87 in 10.0 mi Calm Calm - N/A   Mostly Cloudy
11:35 PM 75.2 °F - 69.8 °F 83% 29.87 in 10.0 mi Calm Calm - N/A   Scattered Clouds
11:53 PM 75.0 °F - 70.0 °F 84% 29.85 in - Calm Calm - N/A   Unknown
11:55 PM 73.4 °F - 69.8 °F 88% 29.87 in 10.0 mi Calm Calm - N/A   Clear